Location: Hiram
(41.3130°N, 81.1440°W)
Time: 20:14:22
(UTC-04:00)

Daily predictions for brighter satellites

Satellite Brightness Start Highest point End
(mag) Time Altitude Azimuth Time Altitude Azimuth Time Altitude Azimuth
Cosmos 1766 Rocket 3.6 18:59:47 10° N 19:04:13 71° E 19:08:40 10° SSE
Cosmos 2151 4.1 19:01:16 10° NNE 19:04:44 23° ENE 19:08:09 10° SE
Cosmos 1842 Rocket 4.4 19:04:49 10° SSE 19:08:40 29° E 19:12:33 10° NNE
SL-14 R/B 3.2 19:05:39 10° N 19:09:30 82° E 19:13:21 10° S
Meteor 2-21 Rocket 4.4 19:05:38 10° S 19:11:40 68° E 19:17:41 10° NNE
Cosmos 2366 rocket 4.1 19:07:35 10° SSE 19:13:38 54° E 19:19:37 10° NNE
MTI 3.7 19:11:29 10° NNE 19:14:43 86° E 19:17:54 10° SSW
SMAP 3.9 19:11:11 10° S 19:15:45 57° W 19:20:21 10° NNW
Cosmos 1242 Rocket 3.7 19:13:49 10° SSW 19:17:18 48° WNW 19:20:53 10° N
Cosmos 2221 3.9 19:17:50 10° SE 19:20:39 17° E 19:23:29 10° NE
ISS -2.7 19:19:13 10° WNW 19:22:22 44° SW 19:25:30 10° SSE
Cosmos 1500 Rocket 4.1 19:19:40 10° N 19:23:43 36° ENE 19:27:42 10° SE
METEOR-M 4.1 19:19:21 10° SSE 19:24:39 71° ENE 19:29:59 10° N
FREGAT/IRIS 4.4 19:23:45 12° E 19:24:58 14° ENE 19:26:43 10° NNE
SPOT 3 Rocket 3.6 19:21:10 10° SSE 19:26:17 64° ENE 19:31:27 10° N
SL-8 Rocket 4.1 19:22:28 10° S 19:28:38 86° W 19:34:54 10° N
Cosmos 1315 Rocket 3.8 19:26:23 10° NNE 19:29:48 25° ENE 19:33:13 10° SE
Cosmos 921 Rocket 4.1 19:27:14 10° N 19:31:00 26° ENE 19:34:41 10° ESE
COSMOS 2428 4.0 19:26:47 10° N 19:31:02 21° NE 19:34:16 14° E
Cosmos 2333 Rocket 4.0 19:31:35 10° NNE 19:34:12 13° NE 19:36:00 12° ENE
Cosmos 2056 Rocket 3.6 19:30:38 10° NNW 19:36:00 87° WSW 19:41:14 10° SSE
Cosmos 1461 3.8 19:32:42 10° SW 19:36:35 48° NW 19:40:40 10° NNE
Cosmos 1833 4.3 19:32:43 10° S 19:38:13 52° ESE 19:43:42 10° NNE
Cosmos 2360 Rocket 2.4 19:33:10 10° NNW 19:38:38 48° ENE 19:44:05 10° SE
Cosmos 2058 3.0 19:35:30 10° N 19:39:38 54° E 19:43:41 10° SSE
Cosmos 2098 Rocket 4.3 19:37:42 10° SE 19:40:53 21° E 19:44:38 10° NNE
NOAA 12 4.1 19:36:04 10° SSE 19:41:17 67° ENE 19:46:34 10° N
Meteor 2-1 Rocket 4.3 19:35:59 10° S 19:41:35 56° E 19:47:20 10° NNE
COSMO-SKYMED 1 2.7 19:38:56 10° N 19:43:17 78° WNW 19:47:36 10° SSW
Cosmos 2219 4.4 19:39:39 10° SE 19:43:37 19° E 19:45:35 16° ENE
RESURS DK-1 2.9 19:40:21 10° N 19:44:13 37° ENE 19:47:05 16° ESE
Cosmos 2322 Rocket 2.7 19:39:12 10° NNW 19:44:45 64° WSW 19:50:17 10° S
Cosmos 1626 2.1 19:42:40 10° N 19:46:25 90° E 19:50:09 10° S
SL-24 R/B - RUBIN 2 4.1 19:42:19 10° NNW 19:47:01 42° NE 19:49:57 19° ESE
Cosmos 2218 Rocket 4.3 19:42:29 10° SSW 19:48:37 72° W 19:54:46 10° N
Aureole 1 Rocket 4.4 19:44:13 10° SSW 19:50:59 62° WNW 19:56:07 10° NNE
Cosmos 1821 Rocket 4.5 19:45:58 10° SSE 19:51:24 35° E 19:56:55 10° NNE
BREEZE-M DEB (TANK) 0.9 19:49:58 10° SW 19:52:02 68° SSE 19:52:36 41° ENE
Lacrosse 5 rocket 3.8 19:50:20 10° WNW 19:53:27 18° NNW 19:56:29 10° NNE
SL-8 R/B 3.8 19:48:48 10° SW 19:53:31 58° SE 19:56:26 23° ENE
Cosmos 1452 Rocket 3.6 19:48:45 10° N 19:53:55 55° ENE 19:59:03 10° SE
USA 267 3.6 19:49:38 13° ENE 19:55:05 44° SE 20:01:14 10° SSW
SJ-6B 3.5 19:55:11 26° E 19:56:09 30° ENE 19:59:27 10° N
Cosmos 1727 Rocket 4.1 19:54:05 10° N 20:00:28 83° W 20:06:48 10° S
Atlas Centaur 2 3.5 19:56:54 10° SW 20:01:08 27° S 20:04:35 16° SE
Cosmos 1805 Rocket 4.3 19:57:53 10° NNE 20:01:46 31° ENE 20:02:32 29° E
DELTA 2 R/B (1) 3.6 19:57:11 10° W 20:02:46 75° S 20:05:56 27° ESE
Cosmos 2322 3.7 19:58:25 10° NNW 20:04:07 62° ENE 20:09:19 12° SE
ALOS 2.5 20:05:09 10° S 20:09:47 70° WSW 20:14:28 10° NNW
BREEZE M DEB (TANK) 3.2 20:05:56 10° WNW 20:09:49 26° N 20:10:26 24° NNE
CZ-4C R/B 2.9 20:08:06 10° S 20:12:17 29° ESE 20:12:17 29° ESE
FENGYUN 3A 3.9 20:09:04 10° S 20:14:26 71° WSW 20:19:52 10° NNW
Cosmos 1703 4.2 20:12:20 10° NNW 20:16:10 50° W 20:19:56 10° S
Abrixas rocket 3.6 20:15:00 10° WNW 20:17:57 29° NNW 20:18:42 26° NNE
Cosmos 2123 Rocket 4.4 20:13:15 10° N 20:19:00 38° ENE 20:20:47 32° ESE
Cosmos 2219 Rocket 2.8 20:24:09 10° N 20:29:16 35° ENE 20:29:17 35° ENE
Tiangong 1 3.7 20:28:37 10° SW 20:29:23 11° SW 20:29:46 11° SSW
USA 234 4.1 20:28:01 27° ENE 20:30:19 34° NNE 20:36:04 10° NW
Thor Agena Rocket 3.7 20:26:44 10° N 20:31:50 72° WNW 20:36:52 10° SSW
Cosmos 1048 Rocket 3.8 20:30:15 10° S 20:35:21 69° ESE 20:38:42 22° NNE
Cosmos 1908 4.3 20:34:56 10° SSW 20:38:42 46° W 20:42:30 10° N
Cosmos 2333 4.2 20:33:55 10° NNW 20:39:36 64° ENE 20:40:47 52° ESE
Cosmos 2237 4.2 20:34:01 10° NNW 20:39:47 84° WSW 20:42:59 28° SSE
Iridium 4 Rocket 3.9 20:35:26 10° S 20:40:47 70° W 20:46:35 10° N
Cosmos 1420 Rocket 4.1 20:36:00 10° NNW 20:41:20 78° WSW 20:44:26 25° S
Envisat 3.5 20:46:17 42° NNE 20:46:17 42° NNE 20:50:04 10° N
H-2A R/B 3.6 20:43:01 17° S 20:45:42 48° W 20:49:30 10° NNW
Resurs 01 Rocket 2.8 20:49:59 32° N 20:49:59 32° N 20:52:28 10° N
Cosmos 44 4.0 20:45:15 10° SSW 20:47:52 35° SSW 20:47:52 35° SSW
Cosmos 2237 Rocket 3.4 20:52:17 10° N 20:55:40 27° NNE 20:55:40 27° NNE
Cosmos 2221 3.9 20:53:53 10° SW 20:57:53 38° WNW 21:01:56 10° N
In-Cosmos 22 Rocket 4.4 20:53:42 10° N 20:58:33 57° NE 20:58:33 57° NE
Cosmos 44 Rocket 3.9 20:55:29 10° SSW 20:58:42 44° SSW 20:58:42 44° SSW
SL-16 R/B 4.3 21:01:27 10° N 21:02:44 14° NNE 21:02:44 14° NNE
Cosmos 1269 Rocket 4.4 21:10:27 10° SSW 21:15:40 60° WNW 21:16:59 46° NNW
COSMOS 2428 3.0 21:10:09 10° NNW 21:15:46 64° WSW 21:16:20 60° SW
Cosmos 2333 Rocket 2.7 21:13:46 10° NNW 21:18:02 50° N 21:18:02 50° N
Cosmos 2360 Rocket 4.3 21:17:51 10° NW 21:22:16 24° WSW 21:26:42 10° SSW
MOS 1-B Rocket 4.3 21:25:31 51° SW 21:26:26 57° W 21:32:15 10° NNW
Cosmos 2219 3.6 21:21:33 10° SW 21:27:13 60° WNW 21:27:40 58° NW
NOSS 0 Rocket 4.4 21:27:59 10° NNW 21:32:33 52° NNW 21:32:33 52° NNW
USA 267 3.7 21:37:01 51° N 21:38:10 57° NW 21:44:32 10° WSW
Atlas Centaur 2 4.3 21:45:00 10° WSW 21:47:13 19° SW 21:47:13 19° SW
CZ-4C R/B 4.1 21:55:37 10° WSW 21:57:35 22° WSW 21:57:35 22° WSW
USA 234 4.2 22:15:23 41° NW 22:15:23 41° NW 22:19:25 10° NW
Cosmos 2219 Rocket 4.1 22:08:10 10° NW 22:11:01 25° WNW 22:11:01 25° WNW
